| time (UTC) | temp F | wind direction | speed MPH | gust MPH | rain 1hr in | rain 24hr in | rain mn in | humidity % | barometer mb |
| 20260507132004 | 51 | 129 | 6.0 | 15.0 | 0.12 | 0.12 | 0.12 | 91 | 1010.6 |
| 20260507131504 | 51 | 96 | 8.0 | 17.0 | 0.12 | 0.12 | 0.12 | 90 | 1010.7 |
| 20260507131004 | 52 | 87 | 8.0 | 17.0 | 0.12 | 0.12 | 0.12 | 90 | 1010.3 |
| 20260507130504 | 53 | 86 | 7.0 | 16.0 | 0.12 | 0.12 | 0.12 | 89 | 1009.8 |
| 20260507130004 | 52 | 115 | 8.0 | 16.0 | 0.11 | 0.11 | 0.11 | 87 | 1009.9 |
| 20260507125525 | 52 | 161 | 7.0 | 15.0 | 0.10 | 0.10 | 0.11 | 85 | 1010.4 |
| 20260507125004 | 53 | 146 | 7.0 | 17.0 | 0.07 | 0.07 | 0.07 | 83 | 1010.6 |
| 20260507124504 | 54 | 91 | 7.0 | 17.0 | 0.05 | 0.05 | 0.05 | 83 | 1010.3 |
| 20260507124004 | 55 | 88 | 9.0 | 18.0 | 0.03 | 0.03 | 0.03 | 80 | 1009.9 |
| 20260507123504 | 56 | 85 | 8.0 | 18.0 | 0.03 | 0.03 | 0.03 | 78 | 1009.7 |
| 20260507123025 | 58 | 87 | 5.0 | 15.0 | 0.02 | 0.02 | 0.02 | 80 | 1009.7 |
| 20260507122525 | 61 | 122 | 3.0 | 11.0 | 0.01 | 0.01 | 0.01 | 72 | 1009.5 |
| 20260507122004 | 62 | 176 | 2.0 | 6.0 | 0.00 | 0.00 | 0.00 | 65 | 1009.8 |
| 20260507121504 | 62 | 144 | 2.0 | 7.0 | 0.00 | 0.00 | 0.00 | 63 | 1009.9 |
| 20260507121004 | 62 | 100 | 3.0 | 7.0 | 0.00 | 0.00 | 0.00 | 62 | 1009.5 |
| 20260507120525 | 63 | 98 | 3.0 | 8.0 | 0.00 | 0.00 | 0.00 | 61 | 1009.6 |
| 20260507120005 | 63 | 96 | 3.0 | 8.0 | 0.00 | 0.00 | 0.00 | 61 | 1009.9 |
| 20260507115525 | 63 | 89 | 3.0 | 7.0 | 0.00 | 0.00 | 0.00 | 62 | 1009.8 |
| 20260507115004 | 63 | 84 | 2.0 | 7.0 | 0.00 | 0.00 | 0.00 | 61 | 1009.7 |
| 20260507114525 | 64 | 79 | 2.0 | 6.0 | 0.00 | 0.00 | 0.00 | 60 | 1009.7 |
| 20260507114004 | 62 | 79 | 2.0 | 4.0 | 0.00 | 0.00 | 0.00 | 63 | 1009.8 |
| 20260507113504 | 61 | 64 | 2.0 | 6.0 | 0.00 | 0.00 | 0.00 | 64 | 1009.8 |
| 20260507113004 | 61 | 37 | 2.0 | 6.0 | 0.00 | 0.00 | 0.00 | 65 | 1009.9 |
| 20260507112504 | 61 | 30 | 2.0 | 4.0 | 0.00 | 0.00 | 0.00 | 66 | 1010.1 |
| 20260507112004 | 61 | 51 | 2.0 | 6.0 | 0.00 | 0.00 | 0.00 | 65 | 1010.0 |
| 20260507111506 | 61 | 67 | 2.0 | 6.0 | 0.00 | 0.00 | 0.00 | 65 | 1010.1 |
| 20260507111004 | 61 | 115 | 3.0 | 8.0 | 0.00 | 0.00 | 0.00 | 66 | 1010.3 |
| 20260507110504 | 61 | 155 | 3.0 | 8.0 | 0.00 | 0.00 | 0.00 | 66 | 1010.4 |
| 20260507110004 | 61 | 101 | 3.0 | 8.0 | 0.00 | 0.00 | 0.00 | 66 | 1010.3 |
| 20260507105504 | 61 | 87 | 3.0 | 8.0 | 0.00 | 0.00 | 0.00 | 66 | 1010.4 |
| 20260507105004 | 61 | 108 | 2.0 | 4.0 | 0.00 | 0.00 | 0.00 | 65 | 1010.4 |
| 20260507104505 | 61 | 88 | 2.0 | 4.0 | 0.00 | 0.00 | 0.00 | 66 | 1010.5 |
| 20260507104025 | 61 | 14 | 2.0 | 4.0 | 0.00 | 0.00 | 0.00 | 66 | 1010.5 |
| 20260507103504 | 60 | 31 | 3.0 | 7.0 | 0.00 | 0.00 | 0.00 | 68 | 1010.5 |
| 20260507103004 | 59 | 44 | 3.0 | 7.0 | 0.00 | 0.00 | 0.00 | 68 | 1010.7 |
| 20260507102504 | 60 | 66 | 2.0 | 7.0 | 0.00 | 0.00 | 0.00 | 67 | 1010.6 |
| 20260507102006 | 60 | 89 | 2.0 | 6.0 | 0.00 | 0.00 | 0.00 | 68 | 1010.8 |
| 20260507101525 | 60 | 112 | 2.0 | 6.0 | 0.00 | 0.00 | 0.00 | 68 | 1011.0 |
| 20260507101004 | 60 | 114 | 3.0 | 7.0 | 0.00 | 0.00 | 0.00 | 67 | 1011.1 |
| 20260507100504 | 59 | 92 | 3.0 | 9.0 | 0.00 | 0.00 | 0.00 | 69 | 1011.3 |
| 20260507100005 | 59 | 66 | 3.0 | 9.0 | 0.00 | 0.00 | 0.00 | 68 | 1011.1 |
| 20260507095504 | 59 | 75 | 2.0 | 6.0 | 0.00 | 0.00 | 0.00 | 70 | 1010.8 |
| 20260507095004 | 59 | 84 | 2.0 | 6.0 | 0.00 | 0.00 | 0.00 | 69 | 1010.7 |
| 20260507094525 | 58 | 80 | 3.0 | 7.0 | 0.00 | 0.00 | 0.00 | 70 | 1011.1 |
| 20260507094004 | 58 | 85 | 2.0 | 7.0 | 0.00 | 0.00 | 0.00 | 70 | 1010.8 |
| 20260507093504 | 59 | 77 | 3.0 | 8.0 | 0.00 | 0.00 | 0.00 | 69 | 1011.1 |
| 20260507093004 | 57 | 70 | 4.0 | 8.0 | 0.00 | 0.00 | 0.00 | 72 | 1011.1 |
| 20260507092504 | 57 | 65 | 3.0 | 8.0 | 0.00 | 0.00 | 0.00 | 71 | 1011.1 |
| 20260507092004 | 57 | 71 | 2.0 | 7.0 | 0.00 | 0.00 | 0.00 | 71 | 1011.1 |
| 20260507091504 | 58 | 83 | 2.0 | 7.0 | 0.00 | 0.00 | 0.00 | 69 | 1011.2 |
| 20260507091004 | 59 | 89 | 2.0 | 8.0 | 0.00 | 0.00 | 0.00 | 68 | 1011.1 |
| 20260507090504 | 58 | 77 | 2.0 | 8.0 | 0.00 | 0.00 | 0.00 | 70 | 1011.1 |
| 20260507090005 | 57 | 67 | 3.0 | 10.0 | 0.00 | 0.00 | 0.00 | 72 | 1011.1 |
| 20260507085504 | 56 | 61 | 4.0 | 10.0 | 0.00 | 0.00 | 0.00 | 72 | 1010.7 |
| 20260507085004 | 56 | 52 | 4.0 | 8.0 | 0.00 | 0.00 | 0.00 | 73 | 1011.0 |
| 20260507084504 | 57 | 48 | 3.0 | 8.0 | 0.00 | 0.00 | 0.00 | 72 | 1011.1 |
| 20260507084004 | 57 | 46 | 3.0 | 9.0 | 0.00 | 0.00 | 0.00 | 71 | 1010.8 |
| 20260507083504 | 56 | 52 | 4.0 | 9.0 | 0.00 | 0.00 | 0.00 | 73 | 1010.8 |
| 20260507083004 | 56 | 56 | 3.0 | 7.0 | 0.00 | 0.00 | 0.00 | 72 | 1011.0 |
| 20260507082504 | 56 | 62 | 3.0 | 7.0 | 0.00 | 0.00 | 0.00 | 72 | 1010.8 |
| 20260507082004 | 55 | 64 | 3.0 | 8.0 | 0.00 | 0.00 | 0.00 | 74 | 1011.0 |
| 20260507081525 | 54 | 62 | 3.0 | 8.0 | 0.00 | 0.00 | 0.00 | 75 | 1011.2 |
| 20260507081004 | 54 | 57 | 3.0 | 7.0 | 0.00 | 0.00 | 0.00 | 75 | 1011.1 |
| 20260507080525 | 53 | 56 | 3.0 | 7.0 | 0.00 | 0.00 | 0.00 | 76 | 1011.1 |
| 20260507080004 | 53 | 52 | 3.0 | 7.0 | 0.00 | 0.00 | 0.00 | 77 | 1011.1 |
| 20260507075525 | 54 | 45 | 2.0 | 7.0 | 0.00 | 0.00 | 0.00 | 76 | 1011.4 |
| 20260507075025 | 53 | 44 | 2.0 | 9.0 | 0.00 | 0.00 | 0.00 | 77 | 1010.8 |
| 20260507074525 | 53 | 37 | 3.0 | 10.0 | 0.00 | 0.00 | 0.00 | 77 | 1010.7 |
| 20260507074025 | 53 | 35 | 4.0 | 10.0 | 0.00 | 0.00 | 0.00 | 77 | 1011.0 |
| 20260507073504 | 53 | 40 | 4.0 | 9.0 | 0.00 | 0.00 | 0.00 | 77 | 1010.6 |
| 20260507073004 | 53 | 39 | 3.0 | 8.0 | 0.00 | 0.00 | 0.00 | 76 | 1010.7 |
| 20260507072504 | 53 | 32 | 4.0 | 8.0 | 0.00 | 0.00 | 0.00 | 76 | 1010.7 |
| 20260507072004 | 53 | 35 | 4.0 | 10.0 | 0.00 | 0.00 | 0.00 | 77 | 1010.7 |
| 20260507071504 | 53 | 55 | 4.0 | 10.0 | 0.00 | 0.00 | 0.00 | 77 | 1010.8 |
| 20260507071025 | 53 | 62 | 4.0 | 8.0 | 0.00 | 0.00 | 0.00 | 77 | 1010.7 |
| 20260507070504 | 53 | 60 | 4.0 | 8.0 | 0.00 | 0.00 | 0.00 | 77 | 1011.1 |
| 20260507070025 | 53 | 52 | 3.0 | 8.0 | 0.00 | 0.00 | 0.00 | 77 | 1011.0 |
| 20260507065504 | 53 | 48 | 3.0 | 8.0 | 0.00 | 0.00 | 0.00 | 77 | 1010.7 |
| 20260507065025 | 53 | 58 | 4.0 | 8.0 | 0.00 | 0.00 | 0.00 | 77 | 1010.7 |
| 20260507064525 | 53 | 55 | 3.0 | 8.0 | 0.00 | 0.00 | 0.00 | 77 | 1010.8 |
| 20260507064004 | 53 | 50 | 2.0 | 7.0 | 0.00 | 0.00 | 0.00 | 77 | 1010.6 |
| 20260507063504 | 53 | 51 | 3.0 | 7.0 | 0.00 | 0.00 | 0.00 | 77 | 1010.5 |
| 20260507063004 | 53 | 44 | 3.0 | 8.0 | 0.00 | 0.00 | 0.00 | 78 | 1010.4 |
| 20260507062504 | 52 | 37 | 3.0 | 8.0 | 0.00 | 0.00 | 0.00 | 78 | 1010.3 |
| 20260507062025 | 52 | 40 | 3.0 | 8.0 | 0.00 | 0.00 | 0.00 | 78 | 1010.4 |
| 20260507061504 | 52 | 39 | 3.0 | 7.0 | 0.00 | 0.00 | 0.00 | 78 | 1010.3 |
| 20260507061004 | 53 | 45 | 3.0 | 7.0 | 0.00 | 0.00 | 0.00 | 78 | 1010.6 |
| 20260507060504 | 52 | 48 | 3.0 | 9.0 | 0.00 | 0.00 | 0.00 | 78 | 1010.3 |
| 20260507060025 | 52 | 38 | 4.0 | 9.0 | 0.00 | 0.00 | 0.00 | 78 | 1010.2 |
| 20260507055504 | 52 | 28 | 4.0 | 7.0 | 0.00 | 0.00 | 0.00 | 79 | 1010.4 |
| 20260507055004 | 52 | 27 | 4.0 | 7.0 | 0.00 | 0.00 | 0.00 | 79 | 1010.4 |
| 20260507054504 | 52 | 24 | 4.0 | 7.0 | 0.00 | 0.00 | 0.00 | 79 | 1010.1 |
| 20260507054004 | 52 | 22 | 4.0 | 8.0 | 0.00 | 0.00 | 0.00 | 79 | 1010.0 |
| 20260507053525 | 52 | 27 | 4.0 | 8.0 | 0.00 | 0.00 | 0.00 | 79 | 1009.9 |
| 20260507053005 | 52 | 25 | 4.0 | 8.0 | 0.00 | 0.00 | 0.00 | 79 | 1009.9 |
| 20260507052504 | 52 | 23 | 4.0 | 7.0 | 0.00 | 0.00 | 0.00 | 79 | 1009.9 |
| 20260507052025 | 52 | 23 | 4.0 | 8.0 | 0.00 | 0.00 | 0.00 | 79 | 1009.8 |
| 20260507051504 | 51 | 21 | 4.0 | 8.0 | 0.00 | 0.00 | 0.00 | 79 | 1010.1 |
| 20260507051004 | 51 | 22 | 4.0 | 7.0 | 0.00 | 0.00 | 0.00 | 79 | 1010.0 |
| 20260507050504 | 51 | 22 | 4.0 | 7.0 | 0.00 | 0.00 | 0.00 | 79 | 1010.1 |
| 20260507050005 | 51 | 19 | 4.0 | 7.0 | 0.00 | 0.00 | 0.00 | 79 | 1009.9 |
| 20260507045504 | 51 | 17 | 3.0 | 6.0 | 0.00 | 0.00 | 0.00 | 79 | 1009.9 |
| 20260507045004 | 51 | 19 | 3.0 | 6.0 | 0.00 | 0.00 | 0.00 | 79 | 1010.1 |
| 20260507044525 | 51 | 18 | 3.0 | 6.0 | 0.00 | 0.00 | 0.00 | 79 | 1009.9 |
| 20260507044004 | 51 | 19 | 3.0 | 7.0 | 0.00 | 0.00 | 0.00 | 79 | 1010.0 |
| 20260507043504 | 51 | 25 | 3.0 | 7.0 | 0.00 | 0.00 | 0.00 | 79 | 1010.0 |
| 20260507043004 | 51 | 29 | 3.0 | 7.0 | 0.00 | 0.00 | 0.00 | 79 | 1009.9 |
| 20260507042504 | 51 | 25 | 3.0 | 7.0 | 0.00 | 0.00 | 0.00 | 79 | 1010.0 |
| 20260507042004 | 51 | 23 | 4.0 | 8.0 | 0.00 | 0.00 | 0.00 | 78 | 1010.0 |
| 20260507041504 | 51 | 21 | 4.0 | 8.0 | 0.00 | 0.00 | 0.00 | 78 | 1010.1 |
| 20260507041004 | 51 | 23 | 4.0 | 9.0 | 0.00 | 0.00 | 0.00 | 78 | 1010.0 |
| 20260507040504 | 51 | 27 | 4.0 | 9.0 | 0.00 | 0.00 | 0.00 | 78 | 1009.8 |
| 20260507040025 | 51 | 28 | 4.0 | 8.0 | 0.00 | 0.00 | 0.00 | 78 | 1009.9 |